GW5027 Weather Reports


time (UTC)temp
C
wind
direction
speed
KPH
gust
KPH
rain 1hr
cm
rain 24hr
cm
rain mn
cm
humidity
%
barometer
mb
20260510131001 18 360 9.7 17.7 0.00 0.00 0.00 67 1013.2
20260510130600 18 338 11.3 17.7 0.00 0.00 0.00 64 1008.8
20260510130003 18 329 4.8 14.5 0.00 0.00 0.00 60 1008.7
20260510125603 19 342 8.0 14.5 0.00 0.00 0.00 59 1008.6
20260510125501 19 54 8.0 14.5 0.00 0.00 0.00 59 1013.1
20260510125100 19 334 8.0 19.3 0.00 0.00 0.00 56 1008.6
20260510125001 19 323 8.0 19.3 0.00 0.00 0.00 57 1013.2
20260510124559 19 323 9.7 19.3 0.00 0.00 0.00 57 1008.6
20260510124502 19 7 6.4 19.3 0.00 0.00 0.00 56 1013.2
20260510124500 19 7 9.7 19.3 0.00 0.00 0.00 56 1008.6
20260510124100 20 338 4.8 11.3 0.00 0.00 0.00 54 1008.7
20260510124003 20 345 4.8 11.3 0.00 0.00 0.00 54 1013.2
20260510123601 20 283 4.8 14.5 0.00 0.00 0.00 55 1008.7
20260510123502 20 29 6.4 14.5 0.00 0.00 0.00 55 1013.2
20260510123101 19 341 6.4 16.1 0.00 0.00 0.00 54 1008.7
20260510123002 19 335 6.4 16.1 0.00 0.00 0.00 54 1008.7
20260510122600 20 3 6.4 12.9 0.00 0.00 0.00 54 1008.8
20260510122501 20 351 6.4 12.9 0.00 0.00 0.00 54 1013.3
20260510122100 20 8 4.8 9.7 0.00 0.00 0.00 52 1008.8
20260510121600 20 24 4.8 11.3 0.00 0.00 0.00 50 1008.8
20260510121501 20 317 4.8 11.3 0.00 0.00 0.00 52 1008.8
20260510121103 20 5 4.8 12.9 0.00 0.00 0.00 53 1008.9
20260510121001 20 319 6.4 12.9 0.00 0.00 0.00 53 1013.5
20260510120602 19 315 4.8 12.9 0.00 0.00 0.00 55 1009.0
20260510120501 19 359 8.0 12.9 0.00 0.00 0.00 54 1013.6
20260510120101 19 338 8.0 12.9 0.00 0.00 0.00 51 1009.1
20260510120005 19 309 6.4 12.9 0.00 0.00 0.00 55 1009.1
20260510115600 19 17 8.0 12.9 0.00 0.00 0.00 56 1009.2
20260510115501 19 23 8.0 12.9 0.00 0.00 0.00 56 1013.7
20260510115100 19 10 8.0 12.9 0.00 0.00 0.00 54 1009.3
20260510115001 19 316 8.0 12.9 0.00 0.00 0.00 54 1013.8
20260510114501 19 2 6.4 12.9 0.00 0.00 0.00 52 1013.7
20260510114100 19 351 4.8 11.3 0.00 0.00 0.00 53 1009.3
20260510114003 19 308 6.4 11.3 0.00 0.00 0.00 58 1013.8
20260510113600 19 342 4.8 14.5 0.00 0.00 0.00 57 1009.4
20260510113501 19 349 6.4 14.5 0.00 0.00 0.00 57 1013.9
20260510113121 20 306 6.4 14.5 0.00 0.00 0.00 56 1009.5
20260510113001 20 314 6.4 14.5 0.00 0.00 0.00 55 1009.4
20260510112503 20 323 6.4 14.5 0.00 0.00 0.00 56 1014.0
20260510112101 20 46 4.8 14.5 0.00 0.00 0.00 54 1009.5
20260510112001 20 290 8.0 16.1 0.00 0.00 0.00 53 1014.0
20260510111601 20 333 8.0 16.1 0.00 0.00 0.00 54 1009.4
20260510111503 20 322 6.4 16.1 0.00 0.00 0.00 55 1014.0
20260510111100 20 295 4.8 9.7 0.00 0.00 0.00 55 1009.6
20260510111001 20 293 4.8 9.7 0.00 0.00 0.00 55 1014.1
20260510110602 20 348 3.2 9.7 0.00 0.00 0.00 54 1009.7
20260510110501 20 297 3.2 9.7 0.00 0.00 0.00 54 1014.2
20260510110101 20 327 1.6 9.7 0.00 0.00 0.00 54 1009.7
20260510110003 20 315 1.6 9.7 0.00 0.00 0.00 54 1009.7
20260510105600 19 324 3.2 9.7 0.00 0.00 0.00 57 1009.8
20260510105103 20 302 4.8 9.7 0.00 0.00 0.00 54 1009.9
20260510105001 20 326 4.8 9.7 0.00 0.00 0.00 54 1014.4
20260510104604 20 311 3.2 9.7 0.00 0.00 0.00 53 1010.0
20260510104501 20 314 3.2 11.3 0.00 0.00 0.00 50 1014.5
20260510104104 21 224 1.6 14.5 0.00 0.00 0.00 48 1010.1
20260510104004 21 68 3.2 14.5 0.00 0.00 0.00 48 1014.6
20260510104000 21 68 0.0 14.5 0.00 0.00 0.00 48 1010.1
20260510103600 21 129 1.6 14.5 0.00 0.00 0.00 46 1010.0
20260510103501 21 281 4.8 14.5 0.00 0.00 0.00 46 1014.5
20260510103105 21 225 6.4 12.9 0.00 0.00 0.00 45 1010.0
20260510102601 21 293 4.8 16.1 0.00 0.00 0.00 45 1010.0
20260510102501 21 248 8.0 16.1 0.00 0.00 0.00 45 1014.5
20260510102101 21 270 4.8 14.5 0.00 0.00 0.00 45 1010.1
20260510101600 21 208 6.4 19.3 0.00 0.00 0.00 45 1010.1
20260510101503 21 195 8.0 19.3 0.00 0.00 0.00 45 1014.5
20260510101501 21 210 6.4 19.3 0.00 0.00 0.00 45 1010.0
20260510101104 21 162 8.0 19.3 0.00 0.00 0.00 44 1010.0
20260510101000 21 145 6.4 16.1 0.00 0.00 0.00 44 1010.0
20260510100600 21 198 4.8 16.1 0.00 0.00 0.00 44 1010.0
20260510100501 21 155 8.0 19.3 0.00 0.00 0.00 44 1014.5
20260510100100 21 89 6.4 19.3 0.00 0.00 0.00 44 1010.0
20260510100005 21 158 8.0 19.3 0.00 0.00 0.00 44 1014.5
20260510100003 21 158 8.0 19.3 0.00 0.00 0.00 44 1010.0
20260510095601 21 231 6.4 14.5 0.00 0.00 0.00 44 1010.0
20260510095503 21 165 6.4 14.5 0.00 0.00 0.00 44 1014.5
20260510095100 21 99 4.8 17.7 0.00 0.00 0.00 45 1010.0
20260510095001 21 110 6.4 17.7 0.00 0.00 0.00 45 1014.5
20260510094601 21 163 6.4 17.7 0.00 0.00 0.00 46 1009.9
20260510094501 21 101 8.0 17.7 0.00 0.00 0.00 45 1014.5
20260510094100 21 133 6.4 16.1 0.00 0.00 0.00 46 1010.1
20260510094003 21 218 6.4 16.1 0.00 0.00 0.00 46 1014.5
20260510093600 21 219 6.4 17.7 0.00 0.00 0.00 46 1010.0
20260510093502 21 180 6.4 17.7 0.00 0.00 0.00 46 1014.6
20260510093109 21 275 4.8 17.7 0.00 0.00 0.00 47 1010.2
20260510093002 21 234 6.4 17.7 0.00 0.00 0.00 47 1014.7
20260510092559 21 180 3.2 14.5 0.00 0.00 0.00 48 1010.2
20260510092502 21 231 6.4 14.5 0.00 0.00 0.00 48 1014.7
20260510092100 20 162 4.8 14.5 0.00 0.00 0.00 48 1010.2
20260510091600 20 191 4.8 16.1 0.00 0.00 0.00 49 1010.2
20260510091501 20 157 8.0 16.1 0.00 0.00 0.00 49 1014.6
20260510091100 20 151 4.8 17.7 0.00 0.00 0.00 51 1010.1
20260510091001 20 139 9.7 17.7 0.00 0.00 0.00 51 1014.6
20260510090600 20 169 8.0 20.9 0.00 0.00 0.00 51 1010.2
20260510090501 20 129 8.0 20.9 0.00 0.00 0.00 51 1014.7
20260510090101 19 149 9.7 20.9 0.00 0.00 0.00 50 1010.3
20260510090005 19 132 8.0 20.9 0.00 0.00 0.00 50 1010.3
20260510085604 20 115 9.7 20.9 0.00 0.00 0.00 50 1010.1
20260510085500 20 121 8.0 19.3 0.00 0.00 0.00 50 1014.7
20260510085059 20 79 4.8 12.9 0.00 0.00 0.00 51 1010.2
20260510085000 20 91 6.4 12.9 0.00 0.00 0.00 51 1014.8
20260510084603 20 190 4.8 16.1 0.00 0.00 0.00 51 1010.4
20260510084059 20 189 6.4 16.1 0.00 0.00 0.00 50 1010.3
20260510084000 20 239 6.4 16.1 0.00 0.00 0.00 50 1014.8
20260510083600 20 149 4.8 16.1 0.00 0.00 0.00 50 1010.2
20260510083500 20 162 6.4 16.1 0.00 0.00 0.00 50 1014.7
20260510083100 20 127 6.4 19.3 0.00 0.00 0.00 50 1010.2
20260510082559 20 86 4.8 19.3 0.00 0.00 0.00 50 1010.2
20260510082100 19 155 12.9 19.3 0.00 0.00 0.00 50 1010.1
20260510082001 19 158 9.7 19.3 0.00 0.00 0.00 51 1014.6
20260510081503 19 145 8.0 19.3 0.00 0.00 0.00 50 1010.2
20260510081501 19 130 8.0 19.3 0.00 0.00 0.00 50 1014.7
20260510081100 19 132 8.0 19.3 0.00 0.00 0.00 51 1010.1
20260510081002 19 199 9.7 19.3 0.00 0.00 0.00 51 1014.6
20260510080601 20 131 9.7 20.9 0.00 0.00 0.00 51 1010.0
20260510080502 20 146 9.7 20.9 0.00 0.00 0.00 51 1014.5
20260510080100 20 191 8.0 20.9 0.00 0.00 0.00 51 1010.0
20260510080005 20 193 8.0 20.9 0.00 0.00 0.00 51 1014.5
20260510080002 20 144 8.0 20.9 0.00 0.00 0.00 51 1010.0
20260510075559 20 149 8.0 17.7 0.00 0.00 0.00 51 1009.9
20260510075500 20 223 8.0 17.7 0.00 0.00 0.00 51 1014.5
20260510075059 20 152 4.8 11.3 0.00 0.00 0.00 51 1009.9
20260510075001 20 172 6.4 11.3 0.00 0.00 0.00 51 1014.4
20260510074559 20 159 6.4 12.9 0.00 0.00 0.00 52 1009.8
20260510074502 20 147 8.0 12.9 0.00 0.00 0.00 52 1014.4
20260510074102 20 199 4.8 20.9 0.00 0.00 0.00 52 1009.8
20260510074000 20 134 8.0 20.9 0.00 0.00 0.00 53 1014.3
20260510073559 20 195 11.3 20.9 0.00 0.00 0.00 52 1009.8
20260510073500 20 236 6.4 20.9 0.00 0.00 0.00 52 1014.3
20260510073106 20 154 3.2 11.3 0.00 0.00 0.00 53 1009.7
20260510073000 20 206 4.8 11.3 0.00 0.00 0.00 53 1014.2
20260510072559 20 169 4.8 9.7 0.00 0.00 0.00 54 1009.6
20260510072501 20 114 3.2 8.0 0.00 0.00 0.00 54 1014.1
20260510072059 20 210 3.2 6.4 0.00 0.00 0.00 54 1009.6
20260510072001 20 97 1.6 6.4 0.00 0.00 0.00 53 1014.1
20260510071601 20 97 0.0 4.8 0.00 0.00 0.00 54 1009.5
20260510071500 20 108 1.6 4.8 0.00 0.00 0.00 54 1014.0
20260510071059 20 255 0.0 8.0 0.00 0.00 0.00 55 1009.4
20260510070559 20 113 1.6 8.0 0.00 0.00 0.00 56 1009.4
20260510070500 20 70 3.2 8.0 0.00 0.00 0.00 56 1013.9
20260510070059 19 117 1.6 8.0 0.00 0.00 0.00 56 1009.4
20260510070004 19 109 3.2 8.0 0.00 0.00 0.00 56 1013.9
20260510070002 19 109 1.6 8.0 0.00 0.00 0.00 56 1009.4
20260510065600 19 91 3.2 9.7 0.00 0.00 0.00 56 1009.3
20260510065501 19 80 3.2 9.7 0.00 0.00 0.00 57 1013.8
20260510065100 20 70 1.6 6.4 0.00 0.00 0.00 56 1009.3
20260510065001 20 109 1.6 6.4 0.00 0.00 0.00 56 1009.3
20260510064603 19 199 1.6 6.4 0.00 0.00 0.00 58 1009.3
20260510064502 19 124 3.2 6.4 0.00 0.00 0.00 58 1013.8
20260510064100 19 96 3.2 6.4 0.00 0.00 0.00 59 1009.2
20260510064001 19 101 3.2 6.4 0.00 0.00 0.00 59 1013.7
20260510063600 18 68 3.2 6.4 0.00 0.00 0.00 59 1009.2
20260510063501 18 91 1.6 6.4 0.00 0.00 0.00 59 1013.7
20260510063100 18 102 1.6 4.8 0.00 0.00 0.00 60 1009.1
20260510063004 18 97 1.6 4.8 0.00 0.00 0.00 60 1013.6
20260510062600 18 122 1.6 8.0 0.00 0.00 0.00 61 1009.1
20260510062501 18 108 3.2 8.0 0.00 0.00 0.00 61 1013.6
20260510062059 17 75 1.6 8.0 0.00 0.00 0.00 62 1008.9
20260510062001 17 84 3.2 9.7 0.00 0.00 0.00 62 1013.5
20260510061600 17 185 1.6 9.7 0.00 0.00 0.00 61 1008.9
20260510061500 17 122 3.2 9.7 0.00 0.00 0.00 61 1013.4
20260510061102 17 153 1.6 11.3 0.00 0.00 0.00 61 1008.8
20260510061001 17 99 4.8 11.3 0.00 0.00 0.00 61 1013.3
20260510060601 17 143 4.8 14.5 0.00 0.00 0.00 61 1008.7
20260510060502 17 79 4.8 14.5 0.00 0.00 0.00 61 1013.2
20260510060101 17 165 4.8 14.5 0.00 0.00 0.00 62 1008.6
20260510060006 17 145 4.8 9.7 0.00 0.00 0.00 62 1013.1
20260510060003 17 145 3.2 9.7 0.00 0.00 0.00 62 1008.6
20260510055559 17 82 3.2 14.5 0.00 0.00 0.00 62 1008.4
20260510055501 17 110 4.8 14.5 0.00 0.00 0.00 62 1013.0
20260510055100 17 125 6.4 14.5 0.00 0.00 0.00 61 1008.5
20260510055003 17 84 4.8 9.7 0.00 0.00 0.00 61 1013.0
20260510054600 17 158 3.2 9.7 0.00 0.00 0.00 62 1008.4
20260510054500 17 143 4.8 9.7 0.00 0.00 0.00 62 1013.0
20260510054059 17 224 3.2 20.9 0.00 0.00 0.00 61 1008.4
20260510053602 17 113 9.7 17.7 0.00 0.00 0.00 61 1008.4
20260510053501 17 82 8.0 17.7 0.00 0.00 0.00 61 1012.9
20260510053119 17 103 6.4 14.5 0.00 0.00 0.00 62 1008.4
20260510053002 17 138 6.4 14.5 0.00 0.00 0.00 62 1013.0
20260510052559 17 127 3.2 9.7 0.00 0.00 0.00 62 1008.5
20260510052501 17 110 4.8 9.7 0.00 0.00 0.00 62 1013.1
20260510052104 17 118 4.8 9.7 0.00 0.00 0.00 62 1008.6
20260510052001 17 179 3.2 9.7 0.00 0.00 0.00 63 1013.1
20260510051607 17 89 3.2 8.0 0.00 0.00 0.00 63 1008.4
20260510051500 17 121 4.8 9.7 0.00 0.00 0.00 63 1012.9
20260510051101 17 134 4.8 12.9 0.00 0.00 0.00 63 1008.3
20260510051004 17 113 6.4 14.5 0.00 0.00 0.00 63 1012.8
20260510050602 17 118 4.8 14.5 0.00 0.00 0.00 63 1008.3
20260510050500 17 122 6.4 14.5 0.00 0.00 0.00 63 1012.9
20260510050112 17 105 6.4 11.3 0.00 0.00 0.00 64 1008.2
20260510050005 17 121 6.4 11.3 0.00 0.00 0.00 64 1012.7
20260510050002 17 121 4.8 11.3 0.00 0.00 0.00 64 1008.2
20260510045600 17 86 6.4 14.5 0.00 0.00 0.00 64 1008.2
20260510045501 17 111 6.4 14.5 0.00 0.00 0.00 64 1012.7
20260510045100 17 126 6.4 14.5 0.00 0.00 0.00 63 1008.3
20260510045001 17 103 6.4 14.5 0.00 0.00 0.00 63 1012.8
20260510044612 17 135 6.4 12.9 0.00 0.00 0.00 64 1008.4
20260510044502 17 102 4.8 12.9 0.00 0.00 0.00 64 1012.9
20260510044059 17 73 3.2 11.3 0.00 0.00 0.00 64 1008.4
20260510043600 17 161 4.8 11.3 0.00 0.00 0.00 64 1008.4
20260510043500 17 89 3.2 9.7 0.00 0.00 0.00 64 1012.9
20260510043102 17 97 3.2 8.0 0.00 0.00 0.00 64 1008.4
20260510043001 17 106 3.2 8.0 0.00 0.00 0.00 64 1012.8
20260510042600 17 104 1.6 9.7 0.00 0.00 0.00 64 1008.4
20260510042500 17 98 3.2 9.7 0.00 0.00 0.00 64 1013.0
20260510042104 17 102 4.8 9.7 0.00 0.00 0.00 64 1008.4
20260510042002 17 89 4.8 9.7 0.00 0.00 0.00 64 1012.8
20260510041604 17 97 3.2 9.7 0.00 0.00 0.00 64 1008.5
20260510041500 17 95 4.8 9.7 0.00 0.00 0.00 64 1013.0
20260510041100 17 117 1.6 12.9 0.00 0.00 0.00 64 1008.4
20260510041000 17 84 6.4 12.9 0.00 0.00 0.00 64 1013.0
20260510040600 17 149 4.8 14.5 0.00 0.00 0.00 63 1008.4
20260510040100 17 75 8.0 14.5 0.00 0.00 0.00 63 1008.5
20260510040004 17 134 6.4 12.9 0.00 0.00 0.00 63 1013.0
20260510040002 17 134 6.4 12.9 0.00 0.00 0.00 63 1008.5
20260510035559 17 71 6.4 12.9 0.00 0.00 0.00 63 1008.5
20260510035502 17 113 4.8 11.3 0.00 0.00 0.00 63 1013.0
20260510035059 17 140 4.8 9.7 0.00 0.00 0.00 63 1008.6
20260510035001 17 128 4.8 9.7 0.00 0.00 0.00 63 1013.1
20260510034600 17 110 3.2 9.7 0.00 0.00 0.00 62 1008.5
20260510034500 17 117 3.2 9.7 0.00 0.00 0.00 62 1013.1
20260510034102 17 126 3.2 12.9 0.00 0.00 0.00 62 1008.5
20260510034001 18 109 4.8 12.9 0.00 0.00 0.00 62 1013.0
20260510033602 18 62 4.8 12.9 0.00 0.00 0.00 62 1008.5
20260510033502 18 96 4.8 12.9 0.00 0.00 0.00 62 1013.1
20260510033112 18 102 4.8 9.7 0.00 0.00 0.00 62 1008.6
20260510033001 18 147 3.2 9.7 0.00 0.00 0.00 62 1013.1
20260510032602 18 126 1.6 9.7 0.00 0.00 0.00 62 1008.5
20260510032500 18 143 3.2 9.7 0.00 0.00 0.00 62 1013.1
20260510032059 18 119 3.2 9.7 0.00 0.00 0.00 62 1008.5
20260510032000 18 79 3.2 9.7 0.00 0.00 0.00 62 1013.0
20260510031600 18 109 1.6 6.4 0.00 0.00 0.00 62 1008.5
20260510031501 18 95 1.6 6.4 0.00 0.00 0.00 62 1013.0
20260510031100 18 131 1.6 4.8 0.00 0.00 0.00 62 1008.4
20260510031002 18 120 3.2 6.4 0.00 0.00 0.00 62 1013.0
20260510030559 18 84 1.6 6.4 0.00 0.00 0.00 62 1008.5
20260510030500 18 139 4.8 8.0 0.00 0.00 0.00 62 1013.0
20260510030112 18 139 3.2 9.7 0.00 0.00 0.00 62 1008.5
20260510030005 18 86 4.8 9.7 0.00 0.00 0.00 62 1013.0
20260510025600 18 124 3.2 11.3 0.00 0.00 0.00 62 1008.4
20260510025500 18 94 3.2 11.3 0.00 0.00 0.00 62 1012.9
20260510025059 18 86 3.2 11.3 0.00 0.00 0.00 62 1008.4
20260510025002 18 131 4.8 11.3 0.00 0.00 0.00 62 1012.9
20260510024600 18 85 3.2 8.0 0.00 0.00 0.00 62 1008.4
20260510024500 18 94 4.8 8.0 0.00 0.00 0.00 62 1012.9
20260510024102 18 134 3.2 9.7 0.00 0.00 0.00 61 1008.4
20260510024001 18 94 4.8 9.7 0.00 0.00 0.00 61 1012.8
20260510023559 18 197 4.8 9.7 0.00 0.00 0.00 61 1008.3
20260510023500 18 89 3.2 9.7 0.00 0.00 0.00 61 1012.8
20260510023059 18 71 4.8 9.7 0.00 0.00 0.00 61 1008.4
20260510022600 18 141 1.6 11.3 0.00 0.00 0.00 61 1008.4
20260510022500 18 96 3.2 11.3 0.00 0.00 0.00 62 1012.8
20260510022100 18 115 3.2 9.7 0.00 0.00 0.00 62 1008.4
20260510022001 18 101 3.2 6.4 0.00 0.00 0.00 62 1012.9
20260510021600 18 32 1.6 8.0 0.00 0.00 0.00 62 1008.4
20260510021500 18 63 3.2 8.0 0.00 0.00 0.00 62 1013.0
20260510021059 18 113 1.6 9.7 0.00 0.00 0.00 62 1008.5
20260510021003 18 146 3.2 9.7 0.00 0.00 0.00 62 1013.0
20260510020559 18 98 3.2 14.5 0.00 0.00 0.00 62 1008.5
20260510020500 18 122 6.4 14.5 0.00 0.00 0.00 62 1013.0
20260510020100 18 91 4.8 14.5 0.00 0.00 0.00 62 1008.4
20260510020005 18 96 8.0 14.5 0.00 0.00 0.00 62 1013.0
20260510020002 18 96 8.0 14.5 0.00 0.00 0.00 62 1008.4
20260510015600 18 94 6.4 14.5 0.00 0.00 0.00 62 1008.5
20260510015500 18 113 6.4 14.5 0.00 0.00 0.00 62 1013.0
20260510015059 18 99 4.8 14.5 0.00 0.00 0.00 62 1008.5
20260510015000 18 96 6.4 14.5 0.00 0.00 0.00 62 1013.0
20260510014604 18 111 6.4 14.5 0.00 0.00 0.00 62 1008.4
20260510014500 18 117 6.4 11.3 0.00 0.00 0.00 62 1012.9
20260510014102 18 141 6.4 14.5 0.00 0.00 0.00 62 1008.4
20260510014002 18 121 6.4 14.5 0.00 0.00 0.00 62 1012.9
20260510013600 18 116 4.8 14.5 0.00 0.00 0.00 62 1008.4
20260510013500 18 186 6.4 14.5 0.00 0.00 0.00 62 1012.9
20260510013100 18 130 4.8 19.3 0.00 0.00 0.00 61 1008.4
20260510012601 18 122 8.0 19.3 0.00 0.00 0.00 61 1008.4
20260510012500 18 98 8.0 19.3 0.00 0.00 0.00 61 1013.0
20260510012059 18 126 8.0 16.1 0.00 0.00 0.00 61 1008.4
20260510012002 18 121 8.0 16.1 0.00 0.00 0.00 61 1013.0
20260510011600 18 129 8.0 16.1 0.00 0.00 0.00 61 1008.4
20260510011500 18 89 8.0 16.1 0.00 0.00 0.00 61 1012.9
20260510011059 18 124 8.0 14.5 0.00 0.00 0.00 61 1008.5
20260510011001 18 83 6.4 14.5 0.00 0.00 0.00 61 1013.0
20260510010559 18 143 4.8 12.9 0.00 0.00 0.00 61 1008.5
20260510010500 18 80 6.4 12.9 0.00 0.00 0.00 61 1013.1
20260510010059 18 101 4.8 17.7 0.00 0.00 0.00 61 1008.6
20260510010004 18 110 8.0 17.7 0.00 0.00 0.00 61 1013.1
20260510010002 18 110 4.8 17.7 0.00 0.00 0.00 61 1008.6
20260510005600 18 101 8.0 19.3 0.00 0.00 0.00 60 1008.6
20260510005500 18 104 9.7 20.9 0.00 0.00 0.00 60 1013.2
20260510005059 18 117 9.7 20.9 0.00 0.00 0.00 60 1008.5
20260510005000 18 113 9.7 20.9 0.00 0.00 0.00 60 1013.1
20260510004559 18 110 9.7 20.9 0.00 0.00 0.00 60 1008.5
20260510004501 18 86 9.7 20.9 0.00 0.00 0.00 60 1013.1
20260510004059 18 142 8.0 19.3 0.00 0.00 0.00 61 1008.6
20260510004002 18 127 8.0 19.3 0.00 0.00 0.00 61 1013.1
20260510003559 18 115 6.4 14.5 0.00 0.00 0.00 60 1008.5
20260510003500 18 159 6.4 14.5 0.00 0.00 0.00 60 1013.0
20260510003104 18 113 4.8 16.1 0.00 0.00 0.00 60 1008.4
20260510003000 18 83 8.0 16.1 0.00 0.00 0.00 60 1013.1
20260510002601 18 95 9.7 16.1 0.00 0.00 0.00 60 1008.5
20260510002500 18 70 6.4 16.1 0.00 0.00 0.00 60 1013.0
20260510002059 18 52 3.2 12.9 0.00 0.00 0.00 59 1008.5
20260510001600 18 82 6.4 19.3 0.00 0.00 0.00 59 1008.4
20260510001501 18 174 8.0 19.3 0.00 0.00 0.00 59 1013.0
20260510001059 18 138 8.0 19.3 0.00 0.00 0.00 59 1008.4
20260510000600 18 96 6.4 16.1 0.00 0.00 0.00 58 1008.4
20260510000502 19 143 8.0 16.1 0.00 0.00 0.00 58 1012.9
20260510000005 19 104 6.4 16.1 0.00 0.00 0.00 58 1012.8
20260510000002 19 104 8.0 16.1 0.00 0.00 0.00 58 1008.3
20260509235559 19 75 4.8 17.7 0.00 0.00 0.00 58 1008.4
20260509235501 19 158 8.0 17.7 0.00 0.00 0.00 57 1012.9
20260509235059 19 177 6.4 17.7 0.00 0.00 0.00 57 1008.5
20260509235001 19 78 8.0 17.7 0.00 0.00 0.00 57 1013.0
20260509234602 19 153 6.4 16.1 0.00 0.00 0.00 57 1008.5
20260509234500 19 126 6.4 16.1 0.00 0.00 0.00 57 1013.1
20260509234100 19 145 4.8 20.9 0.00 0.00 0.00 58 1008.6
20260509234000 19 155 6.4 20.9 0.00 0.00 0.00 58 1013.1
20260509233559 19 75 4.8 20.9 0.00 0.00 0.00 58 1008.5
20260509233501 19 150 6.4 20.9 0.00 0.00 0.00 58 1013.0
20260509233105 19 76 4.8 16.1 0.00 0.00 0.00 58 1008.5
20260509233000 19 72 6.4 16.1 0.00 0.00 0.00 58 1013.1
20260509232559 19 100 8.0 16.1 0.00 0.00 0.00 58 1008.6
20260509232500 19 88 4.8 11.3 0.00 0.00 0.00 58 1013.1
20260509232101 19 157 1.6 12.9 0.00 0.00 0.00 59 1008.6
20260509232000 18 179 4.8 12.9 0.00 0.00 0.00 59 1013.1
20260509231600 18 124 4.8 12.9 0.00 0.00 0.00 60 1008.5
20260509231501 18 96 3.2 11.3 0.00 0.00 0.00 60 1013.2
20260509231100 18 92 3.2 9.7 0.00 0.00 0.00 60 1008.7
20260509230601 18 113 1.6 9.7 0.00 0.00 0.00 60 1008.8
20260509230500 19 98 3.2 9.7 0.00 0.00 0.00 59 1013.3
20260509230100 19 122 3.2 9.7 0.00 0.00 0.00 59 1008.8
20260509230005 19 174 3.2 9.7 0.00 0.00 0.00 59 1013.3
20260509230002 19 174 3.2 9.7 0.00 0.00 0.00 59 1008.8
20260509225600 19 99 0.0 8.0 0.00 0.00 0.00 59 1008.9
20260509225100 19 151 3.2 9.7 0.00 0.00 0.00 59 1008.8
20260509225002 19 82 4.8 9.7 0.00 0.00 0.00 59 1013.3
20260509224601 19 121 4.8 11.3 0.00 0.00 0.00 59 1008.8
20260509224102 19 125 4.8 12.9 0.00 0.00 0.00 59 1008.8
20260509224000 19 108 6.4 14.5 0.00 0.00 0.00 59 1013.4
20260509223601 19 158 4.8 14.5 0.00 0.00 0.00 59 1008.9
20260509223500 19 136 8.0 16.1 0.00 0.00 0.00 58 1013.4
20260509223102 19 51 8.0 16.1 0.00 0.00 0.00 58 1008.9
20260509222600 19 108 4.8 16.1 0.00 0.00 0.00 59 1008.8
20260509222500 19 85 8.0 16.1 0.00 0.00 0.00 59 1013.4
20260509222100 19 111 8.0 16.1 0.00 0.00 0.00 59 1008.8
20260509221559 19 103 8.0 17.7 0.00 0.00 0.00 60 1008.8
20260509221500 19 125 9.7 17.7 0.00 0.00 0.00 60 1013.4
20260509221100 19 120 9.7 19.3 0.00 0.00 0.00 61 1008.9
20260509221002 19 112 11.3 19.3 0.00 0.00 0.00 61 1013.4
20260509220600 19 105 11.3 19.3 0.00 0.00 0.00 61 1009.0
20260509220503 19 101 9.7 19.3 0.00 0.00 0.00 61 1013.5
20260509220007 19 110 8.0 16.1 0.00 0.00 0.00 61 1013.6
20260509220004 19 110 8.0 16.1 0.00 0.00 0.00 61 1009.0
20260509215559 19 116 8.0 16.1 0.00 0.00 0.00 61 1009.1
20260509215500 19 68 8.0 16.1 0.00 0.00 0.00 61 1013.6
20260509215100 19 92 6.4 11.3 0.00 0.00 0.00 61 1009.1
20260509215001 19 125 6.4 11.3 0.00 0.00 0.00 61 1013.6
20260509214600 19 91 4.8 11.3 0.00 0.00 0.00 60 1009.1
20260509214503 19 116 3.2 11.3 0.00 0.00 0.00 60 1013.6
20260509214059 19 119 3.2 6.4 0.00 0.00 0.00 59 1009.1
20260509214000 19 119 3.2 6.4 0.00 0.00 0.00 59 1013.7
20260509213559 19 94 1.6 6.4 0.00 0.00 0.00 59 1009.2
20260509213500 19 134 4.8 6.4 0.00 0.00 0.00 59 1013.7
20260509213102 20 98 3.2 16.1 0.00 0.00 0.00 58 1009.2
20260509213001 20 61 6.4 16.1 0.00 0.00 0.00 58 1013.6
20260509212559 20 73 6.4 16.1 0.00 0.00 0.00 58 1009.0
20260509212501 20 88 8.0 16.1 0.00 0.00 0.00 58 1013.6
20260509212059 20 94 6.4 16.1 0.00 0.00 0.00 58 1008.9
20260509212000 20 75 8.0 16.1 0.00 0.00 0.00 58 1013.5
20260509211606 20 96 9.7 16.1 0.00 0.00 0.00 58 1008.9
20260509211500 20 83 6.4 16.1 0.00 0.00 0.00 58 1013.4
20260509211059 20 64 4.8 9.7 0.00 0.00 0.00 58 1009.0
20260509211000 20 127 3.2 8.0 0.00 0.00 0.00 57 1013.5
20260509210610 20 122 3.2 14.5 0.00 0.00 0.00 57 1008.9
20260509210502 20 127 4.8 14.5 0.00 0.00 0.00 57 1013.5
20260509210004 20 110 8.0 14.5 0.00 0.00 0.00 56 1008.9
20260509205558 20 82 6.4 14.5 0.00 0.00 0.00 56 1008.9
20260509205459 20 60 8.0 16.1 0.00 0.00 0.00 56 1013.4
20260509205059 20 116 4.8 16.1 0.00 0.00 0.00 56 1009.0
20260509204959 20 91 9.7 17.7 0.00 0.00 0.00 56 1013.5
20260509204559 20 110 8.0 17.7 0.00 0.00 0.00 56 1009.0
20260509204502 20 89 9.7 17.7 0.00 0.00 0.00 56 1013.5
20260509204059 20 77 6.4 16.1 0.00 0.00 0.00 56 1009.0
20260509204000 20 78 9.7 16.1 0.00 0.00 0.00 56 1013.6
20260509203558 20 129 9.7 20.9 0.00 0.00 0.00 56 1008.9
20260509203459 20 103 9.7 20.9 0.00 0.00 0.00 57 1013.4
20260509203111 20 72 9.7 20.9 0.00 0.00 0.00 57 1008.9
20260509203000 20 110 9.7 20.9 0.00 0.00 0.00 57 1013.3
20260509202559 20 118 9.7 17.7 0.00 0.00 0.00 57 1008.9
20260509202500 20 106 9.7 17.7 0.00 0.00 0.00 57 1013.4
20260509202103 20 103 8.0 14.5 0.00 0.00 0.00 58 1008.8
20260509202000 20 124 8.0 14.5 0.00 0.00 0.00 58 1013.3
20260509201605 20 89 6.4 16.1 0.00 0.00 0.00 58 1008.8
20260509201500 20 82 8.0 16.1 0.00 0.00 0.00 58 1013.3
20260509201059 20 141 6.4 16.1 0.00 0.00 0.00 58 1008.7
20260509201000 20 105 8.0 16.1 0.00 0.00 0.00 58 1013.2
20260509200559 20 116 6.4 16.1 0.00 0.00 0.00 58 1008.6
20260509200501 20 121 9.7 16.1 0.00 0.00 0.00 58 1013.0
20260509200110 20 77 9.7 20.9 0.00 0.00 0.00 59 1008.5
20260509200005 20 91 9.7 20.9 0.00 0.00 0.00 59 1013.0
20260509200002 20 91 9.7 20.9 0.00 0.00 0.00 59 1008.5
20260509195601 20 101 8.0 20.9 0.00 0.00 0.00 60 1008.3
20260509195500 20 91 8.0 19.3 0.00 0.00 0.00 61 1012.9
20260509195059 20 51 8.0 19.3 0.00 0.00 0.00 62 1008.4
20260509195002 20 82 8.0 19.3 0.00 0.00 0.00 63 1013.0
20260509194559 20 101 8.0 16.1 0.00 0.00 0.00 64 1008.5
20260509194100 20 120 8.0 19.3 0.00 0.00 0.00 64 1008.6
20260509194002 20 108 9.7 19.3 0.00 0.00 0.00 64 1013.1
20260509193606 20 134 9.7 19.3 0.00 0.00 0.00 64 1008.6
20260509193500 20 108 9.7 17.7 0.00 0.00 0.00 65 1013.1
20260509193115 20 82 8.0 19.3 0.00 0.00 0.00 63 1008.6
20260509193001 20 107 9.7 19.3 0.00 0.00 0.00 62 1013.2
20260509192601 20 76 9.7 19.3 0.00 0.00 0.00 62 1008.6
20260509192500 20 68 9.7 19.3 0.00 0.00 0.00 62 1013.1
20260509192059 20 104 8.0 17.7 0.00 0.00 0.00 63 1008.6
20260509192002 20 87 9.7 17.7 0.00 0.00 0.00 63 1013.2
20260509191559 20 98 8.0 14.5 0.00 0.00 0.00 62 1008.6
20260509191500 20 84 6.4 14.5 0.00 0.00 0.00 62 1013.2
20260509191103 20 69 6.4 14.5 0.00 0.00 0.00 62 1008.6
20260509191001 20 87 6.4 14.5 0.00 0.00 0.00 62 1013.0
20260509190601 20 82 3.2 11.3 0.00 0.00 0.00 62 1008.5
20260509190500 20 81 4.8 11.3 0.00 0.00 0.00 62 1013.0
20260509190106 21 115 4.8 8.0 0.00 0.00 0.00 62 1008.4
20260509190006 21 73 4.8 8.0 0.00 0.00 0.00 62 1013.0
20260509190003 21 73 4.8 8.0 0.00 0.00 0.00 62 1008.4
20260509185559 21 95 4.8 9.7 0.00 0.00 0.00 61 1008.3
20260509185500 21 90 4.8 9.7 0.00 0.00 0.00 61 1012.8
20260509185100 21 144 4.8 9.7 0.00 0.00 0.00 60 1008.3
20260509185000 21 73 3.2 9.7 0.00 0.00 0.00 60 1012.8
20260509184609 21 79 1.6 6.4 0.00 0.00 0.00 59 1008.2
20260509184500 21 91 3.2 6.4 0.00 0.00 0.00 59 1012.7
20260509184059 21 102 1.6 6.4 0.00 0.00 0.00 58 1008.2
20260509184002 21 110 4.8 8.0 0.00 0.00 0.00 58 1012.8
20260509183559 21 88 3.2 8.0 0.00 0.00 0.00 57 1008.3
20260509183500 21 69 4.8 8.0 0.00 0.00 0.00 57 1012.7
20260509183059 21 86 3.2 6.4 0.00 0.00 0.00 57 1008.2
20260509183001 21 91 4.8 9.7 0.00 0.00 0.00 56 1012.7
20260509182559 21 90 3.2 9.7 0.00 0.00 0.00 56 1008.2
20260509182500 21 97 3.2 9.7 0.00 0.00 0.00 56 1012.7
20260509182100 22 74 3.2 8.0 0.00 0.00 0.00 55 1008.1
20260509182002 22 74 3.2 8.0 0.00 0.00 0.00 54 1012.7
20260509181559 22 65 1.6 6.4 0.00 0.00 0.00 54 1008.1
20260509181500 22 93 3.2 6.4 0.00 0.00 0.00 54 1012.6
20260509181059 22 103 3.2 4.8 0.00 0.00 0.00 54 1008.1
20260509181001 22 105 1.6 4.8 0.00 0.00 0.00 54 1012.6
20260509180600 22 113 1.6 6.4 0.00 0.00 0.00 53 1008.1
20260509180500 22 141 3.2 9.7 0.00 0.00 0.00 53 1012.5
20260509180059 22 68 0.0 9.7 0.00 0.00 0.00 53 1008.0
20260509180002 22 70 1.6 9.7 0.00 0.00 0.00 53 1008.0
20260509175559 22 65 4.8 9.7 0.00 0.05 0.00 53 1008.0
20260509175502 22 75 3.2 8.0 0.00 0.05 0.00 53 1012.5
20260509175059 21 60 3.2 8.0 0.00 0.05 0.00 55 1007.8
20260509175000 21 88 1.6 8.0 0.00 0.05 0.00 55 1012.4
20260509174602 21 68 1.6 8.0 0.00 0.05 0.00 56 1007.8
20260509174500 21 84 1.6 8.0 0.00 0.05 0.00 56 1012.3
20260509174100 21 158 0.0 6.4 0.00 0.05 0.00 56 1007.8
20260509173600 21 96 1.6 6.4 0.00 0.05 0.00 56 1007.7
20260509173502 22 55 3.2 6.4 0.00 0.05 0.00 56 1012.2
20260509173108 22 72 1.6 6.4 0.00 0.05 0.00 54 1007.7
20260509173001 22 20 3.2 6.4 0.00 0.05 0.00 52 1012.2
20260509172559 22 82 1.6 6.4 0.00 0.05 0.00 51 1007.7
20260509172500 22 85 3.2 6.4 0.00 0.05 0.00 50 1012.2
20260509172100 22 65 3.2 8.0 0.00 0.05 0.00 51 1007.7
20260509172000 22 84 3.2 8.0 0.00 0.05 0.00 51 1012.1
20260509171627 22 33 3.2 8.0 0.00 0.05 0.00 50 1007.6
20260509171501 22 65 3.2 8.0 0.00 0.05 0.00 50 1012.1
20260509171059 22 69 1.6 8.0 0.00 0.05 0.00 50 1007.5
20260509171000 22 69 3.2 4.8 0.00 0.05 0.00 50 1012.0
20260509170559 22 54 1.6 6.4 0.00 0.05 0.00 50 1007.5
20260509170501 22 120 3.2 9.7 0.00 0.05 0.00 50 1012.0
20260509170005 22 85 4.8 9.7 0.00 0.05 0.00 49 1012.0
20260509170002 22 85 3.2 9.7 0.00 0.05 0.00 49 1007.5
20260509165559 22 73 4.8 9.7 0.00 0.05 0.00 49 1007.4
20260509165059 22 82 3.2 8.0 0.00 0.05 0.00 49 1007.4
20260509165001 22 66 3.2 8.0 0.00 0.05 0.00 48 1011.9
20260509164559 22 65 1.6 11.3 0.00 0.05 0.00 48 1007.5
20260509164500 22 114 3.2 11.3 0.00 0.05 0.00 48 1012.0
20260509164059 22 63 1.6 11.3 0.00 0.05 0.00 48 1007.5
20260509164002 22 86 3.2 11.3 0.00 0.05 0.00 48 1012.0
20260509163600 22 127 1.6 8.0 0.00 0.05 0.00 48 1007.6
20260509163500 22 95 1.6 4.8 0.00 0.05 0.00 48 1012.1
20260509163119 22 158 0.0 4.8 0.00 0.05 0.00 48 1007.5
20260509163001 22 63 1.6 4.8 0.00 0.05 0.00 49 1012.0
20260509162559 22 124 1.6 4.8 0.00 0.05 0.00 49 1007.5
20260509162500 22 89 1.6 4.8 0.00 0.05 0.00 49 1012.0
20260509162100 22 144 1.6 8.0 0.00 0.05 0.00 49 1007.5
20260509162002 23 145 1.6 8.0 0.00 0.05 0.00 49 1011.9
20260509161600 23 66 3.2 8.0 0.00 0.05 0.00 49 1007.5
20260509161500 23 66 1.6 8.0 0.00 0.05 0.00 49 1012.0
20260509161059 22 117 0.0 11.3 0.00 0.05 0.00 49 1007.5
20260509161000 22 127 4.8 11.3 0.00 0.05 0.00 49 1012.0
20260509160559 22 106 3.2 14.5 0.00 0.05 0.00 49 1007.5
20260509160100 22 84 6.4 16.1 0.00 0.05 0.00 48 1007.4
20260509160011 22 87 6.4 16.1 0.00 0.05 0.00 49 1007.4
20260509160008 22 87 8.0 16.1 0.00 0.05 0.00 49 1011.9
20260509155602 22 118 6.4 16.1 0.00 0.05 0.00 49 1007.5
20260509155500 22 112 6.4 16.1 0.00 0.05 0.00 49 1011.9
20260509155059 23 126 4.8 16.1 0.00 0.05 0.00 49 1007.4
20260509154559 22 108 8.0 16.1 0.00 0.05 0.00 49 1007.4
20260509154500 23 144 9.7 16.1 0.00 0.05 0.00 49 1012.0
20260509154100 23 72 9.7 16.1 0.00 0.05 0.00 48 1007.5
20260509153603 23 71 6.4 17.7 0.00 0.05 0.00 48 1007.5
20260509153501 23 106 9.7 17.7 0.00 0.05 0.00 48 1012.1
20260509153059 23 105 11.3 17.7 0.00 0.05 0.00 48 1007.6
20260509153001 23 110 9.7 17.7 0.00 0.05 0.00 48 1012.1
20260509152600 23 129 8.0 16.1 0.00 0.05 0.00 47 1007.7
20260509152500 23 117 9.7 16.1 0.00 0.05 0.00 47 1012.2
20260509152100 23 90 8.0 20.9 0.00 0.05 0.00 47 1007.7
20260509152002 23 100 8.0 20.9 0.00 0.05 0.00 47 1012.2
20260509151605 23 111 8.0 20.9 0.00 0.05 0.00 48 1007.7
20260509151500 23 108 8.0 20.9 0.00 0.05 0.00 48 1012.2
20260509151059 23 98 6.4 22.5 0.00 0.05 0.00 48 1007.7
20260509151000 23 119 9.7 22.5 0.00 0.05 0.00 48 1012.2
20260509150559 23 88 8.0 24.1 0.00 0.05 0.00 47 1007.8
20260509150500 23 129 9.7 24.1 0.00 0.05 0.00 47 1012.2
20260509150123 23 112 9.7 24.1 0.00 0.05 0.00 47 1007.7
20260509150005 23 86 9.7 24.1 0.00 0.05 0.00 47 1012.2
20260509150002 23 86 8.0 24.1 0.00 0.05 0.00 47 1007.7
20260509145559 23 113 11.3 20.9 0.00 0.05 0.00 47 1007.7
20260509145501 23 91 11.3 20.9 0.00 0.05 0.00 47 1012.2
20260509145101 23 156 11.3 17.7 0.00 0.05 0.00 47 1007.7
20260509144709 23 124 9.7 20.9 0.00 0.05 0.00 46 1007.8
20260509144501 23 65 6.4 20.9 0.00 0.05 0.00 46 1012.3
20260509144059 23 201 4.8 20.9 0.00 0.05 0.00 47 1007.7
20260509144001 23 136 6.4 20.9 0.00 0.05 0.00 48 1012.3
20260509143559 23 68 6.4 16.1 0.00 0.05 0.00 48 1007.8
20260509143501 23 65 4.8 16.1 0.00 0.05 0.00 48 1012.3
20260509143100 23 122 1.6 12.9 0.00 0.05 0.00 49 1007.8
20260509143000 23 72 4.8 12.9 0.00 0.05 0.00 49 1012.4
20260509142604 23 70 4.8 12.9 0.00 0.05 0.00 48 1007.9
20260509142100 23 102 3.2 11.3 0.00 0.05 0.00 48 1008.0
20260509142000 23 169 4.8 11.3 0.00 0.05 0.00 48 1012.6
20260509141600 23 109 3.2 11.3 0.00 0.05 0.00 48 1008.2
20260509141502 23 134 6.4 11.3 0.00 0.05 0.00 48 1012.7
20260509141100 23 95 4.8 12.9 0.00 0.05 0.00 49 1008.3
20260509141000 22 143 6.4 12.9 0.00 0.05 0.00 48 1012.8
20260509140559 22 116 4.8 14.5 0.00 0.05 0.00 48 1008.5
20260509140500 22 133 8.0 19.3 0.00 0.05 0.00 48 1013.0
20260509140006 22 220 9.7 20.9 0.00 0.05 0.00 48 1013.0
20260509140004 22 220 9.7 20.9 0.00 0.05 0.00 48 1008.4
20260509135559 22 109 8.0 22.5 0.00 0.05 0.00 48 1008.3
20260509135101 22 117 11.3 22.5 0.00 0.05 0.00 48 1008.3
20260509135000 22 109 12.9 22.5 0.00 0.05 0.00 48 1012.8
20260509134600 22 145 12.9 24.1 0.00 0.05 0.00 49 1008.4
20260509134501 22 66 11.3 24.1 0.00 0.05 0.00 49 1012.9
20260509134059 22 52 9.7 24.1 0.00 0.05 0.00 49 1008.4
20260509134000 22 137 9.7 17.7 0.00 0.05 0.00 49 1012.9
20260509133601 22 106 9.7 17.7 0.00 0.05 0.00 50 1008.4
20260509133502 22 160 11.3 24.1 0.00 0.05 0.00 50 1013.0
20260509133059 22 75 11.3 24.1 0.00 0.05 0.00 51 1008.5
20260509133000 22 75 11.3 24.1 0.00 0.05 0.00 51 1013.0
20260509132601 22 56 11.3 24.1 0.00 0.05 0.00 51 1008.5
20260509132500 22 77 11.3 24.1 0.00 0.05 0.00 51 1012.9
20260509132059 22 103 9.7 19.3 0.00 0.05 0.00 52 1008.5
20260509132000 22 90 11.3 19.3 0.00 0.05 0.00 52 1013.1
20260509131559 22 118 11.3 20.9 0.00 0.05 0.00 51 1008.6
20260509131059 22 107 9.7 20.9 0.00 0.05 0.00 52 1008.7